THORAD AGENA D DEB

Satellite information

Favourite Embed

Satellite Type and Status

DEBRISIN ORBIT

Key statistics

Satellite THORAD AGENA D DEB at a glance.

Uptime

20338

Days in orbit

Revolutions

≈ 14.0

Per day

Orbit

SSO

Sun Synchronous Orbit

Inclination

100.0

Latest

Satellite identification and parameters

Extended collection of information and parameters for THORAD AGENA D DEB.

Object identification

Identified? True

Debris? True

Object name: THORAD AGENA D DEB

International designator: 1970-025CN

Object number (NORAD): 4739

Object ID (CCSDS): 4739

Country: UNITED STATES OF AMERICA (US)

Current information (Y/N): Y

RCS size: SMALL

Orbital parameters

Period: 103.02 minutes

Inclination: 99.9504 deg

SMA: 7279.613 km

Apoapsis: 903.491 km

Periapsis: 899.466 km

RAAN: 194.8438 deg

Eccentricy: 0.00027648

Argument of periapsis: 239.7911 deg

Mean anomaly: 248.2979 deg

Mean motion: 13.97784767 rev/day

Mean motion (dot): 0.00002651 rev/day2

B* drag term: 0.0019106724 1/REarth

Two-line elements (TLE)

Creation date: Dec. 12, 2025, 10:14 a.m.

Reference frame: TEME

Reference center: EARTH

Epoch: Dec. 12, 2025, 2:06 a.m. UTC

TLE line 0: 0 THORAD AGENA D DEB

TLE line 1: 1 04739U 70025CN 25346.08753788 .00002651 00000-0 19107-2 0 9997

TLE line 2: 2 04739 99.9504 194.8438 0002765 239.7911 248.2979 13.97784767788025

Live tracking on map

Real-time ground track for satellite THORAD AGENA D DEB.

In-orbit conjunctions

A list of the most updated potential collisions computed for object THORAD AGENA D DEB.

Target Orbit TCA Probability of collision Miss distance Type
GGSE 5 LEO 2024-12-23 23:02:57 0.0005251601 303.0 (m) PAYLOAD
DELTA 1 DEB SSO 2024-11-23 16:11:31 0.0001263813 218.0 (m) DEBRIS
THOR ABLESTAR DEB LEO 2024-11-12 13:27:35 0.0003660656 367.0 (m) DEBRIS
CZ-6A DEB SSO 2024-08-18 16:18:33 0.0001254589 589.0 (m) DEBRIS

Associated space launch

Meteorological research and development satellite

THORAD AGENA D DEB was lifted into orbit during the mission ‘Thorad SLV-2G Agena D | Nimbus 4’, on board a Thorad SLV-2G Agena D space rocket.

The launch took place on April 8, 1970, 8:17 a.m. from Space Launch Complex 2E.

For more information about the launch, click the button.

Launch to space Thorad SLV-2G Agena D | Nimbus 4
Thorad SLV-2G Agena D | Nimbus 4

Agency: N/A

Status: Launch Successful

Launch date: April 8, 1970, 8:17 a.m. UTC

Rocket: Thorad SLV-2G Agena D

Launch pad: Space Launch Complex 2E

Location: Vandenberg SFB, CA, USA

...

Latest news about this satellite

There are no fresh news available about this satellite. Check back as we update our databases every day.


Newsletter sign-up

Weekly statistics, charts and insights to help you stay on top of the space industry.